Weather History for KCTJ - October, 2012

Change the Weather History Date:

Saturday, October 13, 2012

  Actual Average (KANB) Record (KANB)
Temperature  
Mean Temperature 68 °F 64 °F  
Max Temperature 77 °F 76 °F 90 °F (1954)
Min Temperature 59 °F 52 °F 34 °F (1946)
Degree Days  
Heating Degree Days 0    
Month to date heating degree days  
Since 1 July heating degree days  
Cooling Degree Days 3    
Growing Degree Days 18 (Base 50)    
Moisture  
Dew Point 58 °F    
Average Humidity 76    
Maximum Humidity 100    
Minimum Humidity 50    
Precipitation  
Precipitation 0.00 in 0.10 in 1.21 in (1982)
Month to date precipitation 1.25  
Year to date precipitation 39.10  
Sea Level Pressure  
Sea Level Pressure 30.29 in    
Wind  
Wind Speed 4 mph (ESE)    
Max Wind Speed 14 mph    
Max Gust Speed 18 mph    
Visibility 10 miles    
Events      
T = Trace of Precipitation, MM = Missing Value Source: NWS Daily Summary

Daily Weather History Graph

Daily Weather History Graph

Search for Another Location

Airport or City:

Trip Planner

Search our weather history database for the weather conditions in past years. The results will help you decide how hot, cold, wet, or windy it might be!

Date:

Astronomy

Oct. 13, 2012 Rise Set
Actual Time 7:44 AM EDT 7:08 PM EDT
Civil Twilight 7:19 AM EDT 7:33 PM EDT
Nautical Twilight 6:50 AM EDT 8:02 PM EDT
Astronomical Twilight 6:21 AM EDT 8:31 PM EDT
Moon 5:37 AM EDT (10/13) 5:49 PM EDT (10/13)
Length of Visible Light 12h 14m
Length of Day
11h 24m
Waning Crescent, 5% of the Moon is Illuminated
Oct 13
Waning Crescent
Oct 15
New
Oct 21
First Quarter
Oct 29
Full
Nov 6
Last Quarter

Hourly Weather History & Observations

Time (EDT) Temp. Dew Point Humidity Pressure Visibility Wind Dir Wind Speed Gust Speed Precip Events Conditions
12:15 AM 62.6 °F 60.8 °F 94% 30.29 in 10.0 mi Calm Calm - N/A   Overcast
12:35 AM 64.4 °F 62.6 °F 94% 30.29 in 10.0 mi Calm Calm - N/A   Overcast
12:55 AM 64.4 °F 62.6 °F 94% 30.28 in 10.0 mi Calm Calm - N/A   Overcast
2:15 AM 64.4 °F 60.8 °F 88% 30.27 in 10.0 mi NW 5.8 mph - N/A   Mostly Cloudy
2:35 AM 62.6 °F 60.8 °F 94% 30.27 in 10.0 mi Calm Calm - N/A   Scattered Clouds
2:55 AM 62.6 °F 60.8 °F 94% 30.28 in 10.0 mi Calm Calm - N/A   Clear
3:15 AM 60.8 °F 60.8 °F 100% 30.28 in 10.0 mi Calm Calm - N/A   Clear
3:35 AM 60.8 °F 59.0 °F 94% 30.28 in 10.0 mi NNE 3.5 mph - N/A   Clear
3:55 AM 60.8 °F 59.0 °F 94% 30.28 in 10.0 mi NE 4.6 mph - N/A   Clear
4:15 AM 60.8 °F 59.0 °F 94% 30.27 in 10.0 mi NE 3.5 mph - N/A   Clear
4:35 AM 60.8 °F 59.0 °F 94% 30.28 in 10.0 mi NNE 3.5 mph - N/A   Clear
4:55 AM 60.8 °F 59.0 °F 94% 30.28 in 10.0 mi NE 3.5 mph - N/A   Clear
5:15 AM 59.0 °F 59.0 °F 100% 30.28 in 10.0 mi Calm Calm - N/A   Clear
5:35 AM 59.0 °F 59.0 °F 100% 30.29 in 10.0 mi Calm Calm - N/A   Clear
5:55 AM 59.0 °F 59.0 °F 100% 30.29 in 10.0 mi Calm Calm - N/A   Clear
6:15 AM 59.0 °F 59.0 °F 100% 30.30 in 10.0 mi NE 3.5 mph - N/A   Clear
6:55 AM 59.0 °F 59.0 °F 100% 30.30 in 10.0 mi Calm Calm - N/A   Clear
7:15 AM 59.0 °F 59.0 °F 100% 30.31 in 10.0 mi Calm Calm - N/A   Clear
7:35 AM 59.0 °F 59.0 °F 100% 30.31 in 10.0 mi East 3.5 mph - N/A   Mostly Cloudy
7:55 AM 59.0 °F 59.0 °F 100% 30.32 in 10.0 mi East 3.5 mph - N/A   Overcast
8:15 AM 60.8 °F 59.0 °F 94% 30.32 in 10.0 mi East 4.6 mph - N/A   Overcast
8:35 AM 60.8 °F 59.0 °F 94% 30.32 in 10.0 mi East 4.6 mph - N/A   Mostly Cloudy
8:55 AM 60.8 °F 59.0 °F 94% 30.33 in 10.0 mi East 4.6 mph - N/A   Clear
9:15 AM 62.6 °F 59.0 °F 88% 30.34 in 10.0 mi ESE 5.8 mph - N/A   Clear
9:55 AM 64.4 °F 59.0 °F 83% 30.34 in 10.0 mi SE 5.8 mph - N/A   Clear
10:35 AM 68.0 °F 59.0 °F 73% 30.35 in 10.0 mi ESE 9.2 mph - N/A   Scattered Clouds
10:55 AM 68.0 °F 59.0 °F 73% 30.35 in 10.0 mi SE 9.2 mph - N/A   Scattered Clouds
11:35 AM 69.8 °F 59.0 °F 68% 30.35 in 10.0 mi SE 10.4 mph 18.4 mph N/A   Scattered Clouds
11:55 AM 71.6 °F 59.0 °F 64% 30.34 in 10.0 mi SE 10.4 mph - N/A   Mostly Cloudy
12:15 PM 71.6 °F 59.0 °F 64% 30.34 in 10.0 mi SE 10.4 mph - N/A   Mostly Cloudy
12:35 PM 73.4 °F 59.0 °F 61% 30.33 in 10.0 mi South 9.2 mph 16.1 mph N/A   Mostly Cloudy
12:55 PM 73.4 °F 59.0 °F 61% 30.32 in 10.0 mi SSE 11.5 mph - N/A   Mostly Cloudy
1:35 PM 73.4 °F 59.0 °F 61% 30.30 in 10.0 mi SSE 8.1 mph - N/A   Mostly Cloudy
1:55 PM 73.4 °F 59.0 °F 61% 30.29 in 10.0 mi SSE 13.8 mph - N/A   Mostly Cloudy
2:15 PM 75.2 °F 59.0 °F 57% 30.29 in 10.0 mi SSE 11.5 mph 18.4 mph N/A   Mostly Cloudy
2:35 PM 77.0 °F 59.0 °F 54% 30.28 in 10.0 mi South 9.2 mph - N/A   Mostly Cloudy
2:55 PM 75.2 °F 57.2 °F 53% 30.27 in 10.0 mi SE 8.1 mph - N/A   Mostly Cloudy
3:15 PM 77.0 °F 59.0 °F 54% 30.26 in 10.0 mi SE 8.1 mph - N/A   Mostly Cloudy
3:35 PM 75.2 °F 57.2 °F 53% 30.26 in 10.0 mi SE 5.8 mph - N/A   Mostly Cloudy
3:55 PM 73.4 °F 59.0 °F 61% 30.26 in 10.0 mi SE 4.6 mph - N/A   Overcast
4:15 PM 77.0 °F 57.2 °F 50% 30.25 in 10.0 mi ESE 6.9 mph - N/A   Overcast
4:35 PM 75.2 °F 59.0 °F 57% 30.25 in 10.0 mi ESE 5.8 mph - N/A   Mostly Cloudy
4:55 PM 73.4 °F 57.2 °F 57% 30.25 in 10.0 mi ESE 5.8 mph - N/A   Overcast
5:15 PM 73.4 °F 57.2 °F 57% 30.25 in 10.0 mi ESE 4.6 mph - N/A   Mostly Cloudy
5:35 PM 73.4 °F 57.2 °F 57% 30.25 in 10.0 mi SE 6.9 mph - N/A   Mostly Cloudy
5:55 PM 73.4 °F 57.2 °F 57% 30.24 in 10.0 mi ESE 8.1 mph - N/A   Clear
6:15 PM 73.4 °F 55.4 °F 53% 30.24 in 10.0 mi ESE 5.8 mph - N/A   Clear
6:55 PM 69.8 °F 57.2 °F 64% 30.25 in 10.0 mi SE 4.6 mph - N/A   Clear
7:15 PM 69.8 °F 55.4 °F 60% 30.25 in 10.0 mi SE 5.8 mph - N/A   Clear
7:35 PM 68.0 °F 55.4 °F 64% 30.25 in 10.0 mi Calm Calm - N/A   Clear
7:55 PM 68.0 °F 55.4 °F 64% 30.25 in 10.0 mi SE 4.6 mph - N/A   Clear
8:35 PM 66.2 °F 55.4 °F 68% 30.26 in 10.0 mi SE 3.5 mph - N/A   Clear
8:55 PM 66.2 °F 55.4 °F 68% 30.26 in 10.0 mi ESE 4.6 mph - N/A   Clear
9:35 PM 64.4 °F 55.4 °F 73% 30.26 in 10.0 mi ESE 4.6 mph - N/A   Clear
10:15 PM 64.4 °F 55.4 °F 73% 30.27 in 10.0 mi ESE 5.8 mph - N/A   Clear
10:35 PM 64.4 °F 53.6 °F 68% 30.27 in 10.0 mi ESE 5.8 mph - N/A   Clear
10:55 PM 64.4 °F 53.6 °F 68% 30.26 in 10.0 mi SE 5.8 mph - N/A   Clear
11:15 PM 62.6 °F 53.6 °F 72% 30.26 in 10.0 mi ESE 5.8 mph - N/A   Clear